Powrót do katalogu

STARLINK-36898

AktywnyŁącznośćVLEO
NORAD 68002·PAYLOAD·🇺🇸 United States

Wystrzelony Feb 27, 2026 z Vandenberg Space Force Base

Loading…

Następne Przeloty (najbliższe 24 godziny)

TLE

ŚwieżeSource: CelesTrak SupGP

Epoka: Sep 14, 2026, 20:57 UTC

1 68002C 26039S   26257.87340278  .00062669  00000+0  22701-2 0  2576
2 68002  43.0001  60.8237 0001387 270.7515  70.5612 15.27544503    16

Śledź STARLINK-36898 w czasie rzeczywistym z AllMySat

Download on the App Store